[[{"header":{"parameterUnit":"m.s-1","parameterCategory":1,"la1":30.2991,"la2":30.254,"lo1":-89.0895,"lo2":-89.0444,"dy":0.0017,"dx":0.0017,"nx":28,"ny":28,"refTime":"2025-06-10T03:00:00:Z","depth":0,"parameterNumber":2,"parameterNumberName":"U-component_of_WINDS"},"data":[0,0,0,0,0,0,0,0,0,0,0,0,0,0,0,0,0,0,0,0,0,0,0,0,0,0,0,0,0,0,0,0,0,0,0,0,0,0,0,0,0,0,0,0,0,0,0,0,0,0,0,0,0,0,0,0,0,0,0.3629,0.363,0,0.3743,0.3744,0.3746,0.3827,0.3827,0.3828,0.3829,0.3944,0.3947,0.3949,0,0,0,0,0,0,0,0,0,0,0,0,0,0.3477,0.348,0.3628,0.363,0.3631,0.3743,0.3744,0.3746,0.3826,0.3827,0.3828,0.3829,0.3944,0.3947,0.3949,0,0,0,0,0,0,0,0,0,0,0,0,0,0.3562,0.348,0.3628,0.3685,0.3691,0.3742,0.3744,0.3746,0.3826,0.3827,0.3828,0.3829,0.3943,0.3946,0.395,0.3953,0,0,0.3961,0.3963,0,0,0,0,0,0,0,0,0.3557,0.3568,0.3675,0.3681,0.3688,0.3772,0.3734,0.3816,0.3826,0.3775,0.3829,0.383,0.3886,0.3894,0.3914,0.3959,0.3964,0.3962,0.3964,0.3965,0.3966,0,0,0,0,0,0,0,0.3551,0.3563,0.3674,0.3677,0.3685,0.3704,0.3717,0.3749,0.3824,0.378,0.3786,0.3798,0.389,0.391,0.3917,0.3965,0.3961,0.3965,0.3967,0.3969,0.4017,0.4016,0,0,0,0,0,0,0.3537,0.3558,0.367,0.3677,0.3624,0.3706,0.3721,0.3744,0.3823,0.3837,0.3797,0.3802,0.3903,0.3913,0.3921,0.393,0.3965,0.3969,0.3971,0.4018,0.4017,0.4016,0,0,0,0,0,0,0.3533,0.3546,0.3665,0.3619,0.3636,0.3707,0.3733,0.3746,0.3766,0.3837,0.385,0.3804,0.3904,0.3916,0.3944,0.3935,0.3971,0.3974,0.4019,0.4018,0.4016,0.3946,0,0,0,0,0,0,0.3529,0.3544,0.3547,0.3619,0.3638,0.3687,0.3732,0.3747,0.3772,0.3779,0.3847,0.3859,0.3906,0.3938,0.3948,0.3941,0.3977,0.402,0.4019,0.4017,0.395,0.3943,0.3937,0,0,0,0,0,0.3523,0.3523,0.3547,0.356,0.3643,0.3686,0.3697,0.3751,0.3771,0.3774,0.3819,0.3857,0.3934,0.3941,0.3952,0.3946,0.4021,0.4019,0.4017,0.3953,0.3944,0.3937,0,0,0,0,0,0,0.3448,0.3533,0.3561,0.3584,0.3627,0.37,0.3705,0.3741,0.3779,0.3784,0.3849,0.3863,0.3884,0.3918,0.3924,0.3952,0.3982,0.3982,0.3929,0.3922,0.3915,0.3906,0.398,0,0,0,0,0,0.3434,0.3463,0.3536,0.3549,0.3569,0.3633,0.3654,0.3692,0.3739,0.3758,0.3806,0.3849,0.3884,0.3905,0.394,0.3955,0.397,0.3956,0.3949,0.3944,0.3943,0.3952,0.3946,0.4009,0.4009,0.4009,0,0,0.3406,0.3456,0.347,0.3535,0.3573,0.3601,0.3648,0.3676,0.3696,0.3762,0.3792,0.3828,0.3881,0.3902,0.3914,0.3931,0.3928,0.3941,0.3936,0.3938,0.3949,0.3943,0.3937,0.4008,0.4008,0.4008,0,0,0.3368,0.341,0.3425,0.3462,0.3519,0.3561,0.3564,0.3631,0.3658,0.3688,0.3738,0.3763,0.3821,0.3856,0.3882,0.3855,0.3891,0.3865,0.383,0.3838,0.3833,0.3829,0.3818,0.3814,0.3864,0.3864,0.3864,0,0.3326,0.337,0.3428,0.3452,0.3478,0.3539,0.3554,0.3587,0.3652,0.3668,0.3687,0.3759,0.3799,0.3829,0.3822,0.3841,0.3846,0.3858,0.3829,0.3826,0.3823,0.3813,0.3809,0.386,0.3861,0.3861,0.3861,0,0.3314,0.3344,0.3349,0.341,0.3437,0.3457,0.3516,0.3537,0.3571,0.3611,0.3641,0.3691,0.3737,0.3747,0.3781,0.378,0.3789,0.3817,0.3849,0.3812,0.3804,0.3801,0.3855,0.3856,0.3858,0.3858,0,0,0.3233,0.3325,0.3326,0.3354,0.3421,0.3444,0.3466,0.3511,0.3526,0.3569,0.3587,0.3634,0.366,0.3689,0.3728,0.3735,0.3709,0.3762,0.3764,0.3749,0.3709,0.3687,0.3682,0.3733,0.3733,0.3732,0.3705,0,0.3205,0.3247,0.3299,0.3323,0.3351,0.3408,0.3426,0.3468,0.3506,0.3533,0.3575,0.3606,0.3639,0.3657,0.3666,0.371,0.3701,0.3713,0.375,0.375,0.3734,0.3678,0.3655,0.3627,0.3702,0.3702,0.3701,0,0.3178,0.3217,0.3244,0.3307,0.332,0.3336,0.3381,0.3407,0.3455,0.3482,0.3513,0.3554,0.3578,0.3607,0.364,0.3646,0.3664,0.3688,0.3688,0.3693,0.3723,0.3681,0.3619,0.3614,0.3697,0.3698,0.3698,0,0.3114,0.3174,0.3198,0.322,0.3294,0.3304,0.3335,0.3384,0.3407,0.3446,0.3462,0.3502,0.3524,0.3554,0.3605,0.3621,0.3632,0.3665,0.3654,0.3653,0.3654,0.3653,0.3593,0.3666,0.3666,0.3667,0.3667,0,0.3077,0.3091,0.317,0.3184,0.3201,0.326,0.3274,0.3311,0.3354,0.3375,0.3427,0.3446,0.3513,0.3539,0.3579,0.3599,0.3609,0.363,0.3641,0.3625,0.3622,0.3638,0.3641,0.3666,0.3666,0.3666,0.3666,0,0.3009,0.3063,0.3092,0.3159,0.3177,0.3186,0.3243,0.3259,0.3299,0.3325,0.3334,0.3397,0.3431,0.3484,0.3534,0.356,0.3573,0.3591,0.3557,0.3563,0.3548,0.3548,0.3496,0.3491,0.3568,0.3567,0.3566,0,0.2981,0.2993,0.3062,0.308,0.3109,0.3138,0.3162,0.322,0.3243,0.3298,0.3306,0.3343,0.3377,0.3427,0.3476,0.3514,0.3532,0.3511,0.3538,0.3522,0.353,0.3529,0.3529,0.3504,0.3503,0.3502,0.3502,0,0.2925,0.2951,0.2984,0.3025,0.3052,0.3088,0.3125,0.3137,0.3203,0.3226,0.3261,0.3286,0.3336,0.3372,0.3416,0.3447,0.3485,0.3493,0.3492,0.3476,0.3455,0.3465,0.3539,0.3494,0.3494,0.3495,0.3495,0.3496,0.2876,0.2889,0.2939,0.2973,0.3007,0.3041,0.3058,0.3101,0.3131,0.3176,0.3209,0.3241,0.3287,0.3351,0.338,0.3405,0.3422,0.3421,0.342,0.3419,0.3412,0.3451,0.3413,0.3414,0.3414,0.3414,0.3414,0,0.2822,0.2857,0.2888,0.2939,0.2965,0.2999,0.3042,0.3062,0.3089,0.313,0.3161,0.32,0.3235,0.3287,0.3325,0.3335,0.3353,0.3343,0.3343,0.3349,0.3396,0.3392,0.3328,0.3328,0.3328,0.3328,0.3328,0.3328,0.2797,0.2819,0.2851,0.2891,0.2925,0.2958,0.2979,0.301,0.3043,0.3084,0.3113,0.3147,0.3192,0.3233,0.3266,0.328,0.3292,0.3276,0.3295,0.3338,0.3346,0.3353,0.335,0.3278,0.3278,0.3246,0.3246,0.3245]},{"header":{"parameterUnit":"m.s-1","parameterCategory":1,"la1":30.2991,"la2":30.254,"lo1":-89.0895,"lo2":-89.0444,"dy":0.0017,"dx":0.0017,"nx":28,"ny":28,"refTime":"2025-06-10T03:00:00:Z","depth":0,"parameterNumber":3,"parameterNumberName":"V-component_of_WINDS"},"data":[0,0,0,0,0,0,0,0,0,0,0,0,0,0,0,0,0,0,0,0,0,0,0,0,0,0,0,0,0,0,0,0,0,0,0,0,0,0,0,0,0,0,0,0,0,0,0,0,0,0,0,0,0,0,0,0,0,0,2.6274,2.6275,0,2.635,2.635,2.6351,2.6386,2.6386,2.6386,2.6386,2.6457,2.6459,2.6461,0,0,0,0,0,0,0,0,0,0,0,0,0,2.6153,2.6155,2.6274,2.6275,2.6276,2.6349,2.635,2.6352,2.6386,2.6386,2.6386,2.6386,2.6457,2.6459,2.6461,0,0,0,0,0,0,0,0,0,0,0,0,0,2.6215,2.6156,2.6274,2.6302,2.6306,2.6349,2.6351,2.6352,2.6386,2.6386,2.6386,2.6386,2.6456,2.6459,2.6462,2.6481,0,0,2.6471,2.6472,0,0,0,0,0,0,0,0,2.6211,2.6219,2.6297,2.63,2.6304,2.6358,2.6334,2.6395,2.6386,2.6355,2.6386,2.6385,2.6424,2.643,2.6444,2.6485,2.6488,2.6471,2.6473,2.6474,2.6475,0,0,0,0,0,0,0,2.6207,2.6216,2.6304,2.6298,2.6303,2.6309,2.6317,2.6346,2.6389,2.6358,2.6361,2.6369,2.6426,2.6441,2.6446,2.6489,2.6471,2.6473,2.6475,2.6476,2.6547,2.6547,0,0,0,0,0,0,2.6199,2.6212,2.6302,2.6306,2.6257,2.6311,2.6321,2.6341,2.6389,2.6396,2.6369,2.6371,2.6436,2.6442,2.6448,2.6473,2.6474,2.6477,2.6478,2.6546,2.6547,2.6547,0,0,0,0,0,0,2.6196,2.6207,2.6299,2.626,2.6272,2.6313,2.6336,2.6342,2.6358,2.6398,2.6405,2.6377,2.6436,2.6444,2.6473,2.6476,2.6478,2.6481,2.6546,2.6546,2.6547,2.6524,0,0,0,0,0,0,2.6192,2.6205,2.6215,2.626,2.6274,2.6324,2.6336,2.6344,2.6363,2.6366,2.6407,2.6413,2.6437,2.6468,2.6476,2.648,2.6483,2.6546,2.6546,2.6547,2.6524,2.6523,2.6522,0,0,0,0,0,2.6188,2.6205,2.6216,2.6226,2.6288,2.6324,2.6332,2.636,2.6363,2.6372,2.6397,2.6412,2.6474,2.6471,2.6479,2.6485,2.6546,2.6546,2.6547,2.6525,2.6523,2.6522,0,0,0,0,0,0,2.6159,2.6212,2.6224,2.6257,2.6286,2.633,2.6343,2.6358,2.6385,2.6386,2.6418,2.6426,2.6451,2.6471,2.6466,2.6505,2.6511,2.6513,2.6492,2.6491,2.6489,2.6484,2.6485,0,0,0,0,0,2.6157,2.6184,2.6228,2.6252,2.6266,2.6301,2.6318,2.6337,2.6368,2.638,2.6407,2.6435,2.646,2.6476,2.6502,2.6527,2.6535,2.6534,2.6533,2.6532,2.6533,2.6545,2.6545,2.6547,2.6547,2.6547,0,0,2.6152,2.6184,2.6199,2.6247,2.6272,2.6297,2.6312,2.6338,2.6356,2.6383,2.6412,2.6432,2.6465,2.6491,2.6504,2.6508,2.6534,2.6532,2.6531,2.6533,2.6546,2.6545,2.6545,2.6547,2.6547,2.6547,0,0,2.6156,2.6183,2.6206,2.623,2.6268,2.629,2.6295,2.6337,2.6352,2.6381,2.6401,2.6422,2.6466,2.6488,2.6504,2.6512,2.6526,2.6519,2.6513,2.6525,2.6525,2.6525,2.6526,2.6526,2.6521,2.6521,2.652,0,2.6144,2.6185,2.6215,2.624,2.6259,2.6286,2.6307,2.6328,2.6371,2.6383,2.6387,2.6441,2.6465,2.6495,2.6497,2.651,2.6515,2.6516,2.6523,2.6523,2.6523,2.6525,2.6526,2.6519,2.652,2.652,2.652,0,2.6168,2.6196,2.6209,2.6251,2.6271,2.6294,2.6325,2.6342,2.6358,2.6379,2.6407,2.6436,2.6467,2.6475,2.6491,2.6507,2.6508,2.6517,2.6524,2.6521,2.6524,2.6525,2.6518,2.6518,2.6519,2.6519,0,0,2.6159,2.6215,2.6219,2.6238,2.6279,2.63,2.6322,2.6353,2.6366,2.6394,2.6412,2.6447,2.6455,2.6473,2.6491,2.6501,2.6503,2.6508,2.6509,2.6506,2.652,2.6513,2.6514,2.6512,2.6512,2.6513,2.6517,0,2.6167,2.6211,2.6237,2.6269,2.6293,2.6317,2.6336,2.6362,2.6381,2.6402,2.6423,2.6447,2.6457,2.6468,2.6478,2.6501,2.6506,2.6501,2.6527,2.6528,2.6519,2.6515,2.6509,2.6512,2.6518,2.6519,2.6519,0,2.6185,2.6213,2.6247,2.6284,2.6295,2.6312,2.6341,2.6362,2.639,2.6404,2.6423,2.6441,2.6462,2.6466,2.6495,2.649,2.6502,2.6514,2.6515,2.6519,2.6524,2.6518,2.6514,2.6514,2.6521,2.652,2.652,0,2.6173,2.6218,2.6245,2.626,2.6303,2.6314,2.6332,2.6361,2.6377,2.6402,2.6412,2.6438,2.6453,2.6471,2.6494,2.6496,2.652,2.6527,2.653,2.6529,2.6535,2.6534,2.6532,2.6542,2.6542,2.6542,2.6542,0,2.618,2.62,2.624,2.6256,2.6278,2.6306,2.6326,2.6345,2.637,2.6388,2.6409,2.6425,2.6454,2.6473,2.6491,2.6511,2.6517,2.6527,2.6532,2.6525,2.6524,2.6534,2.6534,2.6542,2.6542,2.6542,2.6542,0,2.6171,2.6199,2.6228,2.6267,2.6276,2.6291,2.6322,2.6337,2.6357,2.6379,2.6386,2.6416,2.644,2.6464,2.6495,2.6507,2.6526,2.6532,2.6517,2.6519,2.6521,2.652,2.6525,2.6526,2.6536,2.6536,2.6536,0,2.6174,2.619,2.623,2.6244,2.6262,2.6285,2.6301,2.6328,2.6344,2.6376,2.6386,2.6411,2.6433,2.6468,2.6491,2.6515,2.6521,2.6521,2.6525,2.6518,2.6521,2.6519,2.652,2.652,2.652,2.652,2.652,0,2.6176,2.6188,2.6213,2.6241,2.626,2.6283,2.6307,2.6317,2.6347,2.6364,2.6388,2.6405,2.6436,2.646,2.6485,2.6501,2.6515,2.6518,2.652,2.6514,2.6504,2.6509,2.6513,2.6518,2.6518,2.6518,2.6519,2.6519,2.6173,2.6187,2.6217,2.6242,2.6263,2.6284,2.6299,2.632,2.6342,2.6371,2.6384,2.6408,2.6432,2.6468,2.6484,2.6501,2.6505,2.6508,2.6509,2.6509,2.6507,2.6501,2.6506,2.6506,2.6506,2.6506,2.6506,0,2.6175,2.6195,2.6218,2.6251,2.6269,2.6281,2.6307,2.6322,2.6343,2.6366,2.6386,2.6412,2.6435,2.6459,2.6482,2.6491,2.6498,2.6496,2.6496,2.6499,2.6503,2.6499,2.6491,2.6491,2.6491,2.6491,2.6491,2.6491,2.6179,2.6204,2.6219,2.6252,2.6271,2.6296,2.6309,2.6327,2.6345,2.6375,2.6394,2.641,2.6432,2.6457,2.6477,2.6483,2.649,2.6487,2.6495,2.6498,2.6499,2.65,2.6497,2.6488,2.6488,2.649,2.649,2.649]}]]